Terug naar catalogus

STARLINK-4687

ActiefCommunicatieVLEO
NORAD 53784·PAYLOAD·🇺🇸 United States

Gelanceerd Sep 11, 2022 vanaf Cape Canaveral Space Force Station

Loading…

Volgende Passages (komende 24 uur)

TLE

VersSource: CelesTrak SupGP

Epoch: Sep 14, 2026, 21:01 UTC

1 53784C 22111M   26257.87618056 -.00023542  00000+0 -75748-3 0  2575
2 53784  53.1564 131.9619 0001256  92.2467 194.8552 15.31694775    10

Volg STARLINK-4687 in realtime met AllMySat

Download on the App Store